| time (UTC) | temp C | wind direction | speed KPH | gust KPH | rain 1hr cm | rain 24hr cm | rain mn cm | humidity % | barometer mb |
| 20260505214334 | 26 | 123 | 1.6 | 0.0 | 0.00 | 0.00 | 0.00 | 43 | 1013.5 |
| 20260505213859 | 26 | 164 | 1.6 | 0.0 | 0.00 | 0.00 | 0.00 | 42 | 1013.5 |
| 20260505213322 | 26 | 103 | 1.6 | 0.0 | 0.00 | 0.00 | 0.00 | 43 | 1013.5 |
| 20260505212823 | 26 | 128 | 1.6 | 0.0 | 0.00 | 0.00 | 0.00 | 43 | 1013.6 |
| 20260505212329 | 26 | 281 | 1.6 | 0.0 | 0.00 | 0.00 | 0.00 | 44 | 1013.6 |
| 20260505211850 | 26 | 242 | 1.6 | 0.0 | 0.00 | 0.00 | 0.00 | 41 | 1013.5 |
| 20260505211355 | 26 | 143 | 1.6 | 0.0 | 0.00 | 0.00 | 0.00 | 41 | 1013.6 |
| 20260505210839 | 26 | 186 | 1.6 | 0.0 | 0.00 | 0.00 | 0.00 | 41 | 1013.7 |
| 20260505210323 | 26 | 262 | 1.6 | 0.0 | 0.00 | 0.00 | 0.00 | 40 | 1013.6 |
| 20260505205824 | 26 | 281 | 1.6 | 0.0 | 0.00 | 0.00 | 0.00 | 40 | 1013.7 |
| 20260505205330 | 27 | 136 | 1.6 | 0.0 | 0.00 | 0.00 | 0.00 | 39 | 1013.8 |
| 20260505204834 | 27 | 230 | 3.2 | 0.0 | 0.00 | 0.00 | 0.00 | 39 | 1013.7 |
| 20260505204336 | 27 | 225 | 1.6 | 0.0 | 0.00 | 0.00 | 0.00 | 38 | 1013.7 |
| 20260505203841 | 27 | 240 | 3.2 | 0.0 | 0.00 | 0.00 | 0.00 | 40 | 1013.7 |
| 20260505203325 | 27 | 260 | 3.2 | 0.0 | 0.00 | 0.00 | 0.00 | 39 | 1013.8 |
| 20260505202830 | 27 | 279 | 3.2 | 0.0 | 0.00 | 0.00 | 0.00 | 40 | 1013.8 |
| 20260505202331 | 27 | 266 | 3.2 | 0.0 | 0.00 | 0.00 | 0.00 | 40 | 1013.8 |
| 20260505201835 | 27 | 262 | 3.2 | 0.0 | 0.00 | 0.00 | 0.00 | 40 | 1013.8 |
| 20260505201340 | 27 | 248 | 3.2 | 0.0 | 0.00 | 0.00 | 0.00 | 41 | 1013.9 |
| 20260505200825 | 27 | 182 | 1.6 | 0.0 | 0.00 | 0.00 | 0.00 | 41 | 1014.0 |
| 20260505200329 | 27 | 150 | 3.2 | 0.0 | 0.00 | 0.00 | 0.00 | 41 | 1014.2 |
| 20260505195854 | 27 | 296 | 3.2 | 0.0 | 0.00 | 0.00 | 0.00 | 41 | 1014.2 |
| 20260505195339 | 27 | 221 | 1.6 | 0.0 | 0.00 | 0.00 | 0.00 | 40 | 1014.3 |
| 20260505194840 | 27 | 267 | 1.6 | 0.0 | 0.00 | 0.00 | 0.00 | 41 | 1014.5 |
| 20260505194341 | 27 | 163 | 1.6 | 0.0 | 0.00 | 0.00 | 0.00 | 41 | 1014.5 |
| 20260505193826 | 27 | 246 | 1.6 | 0.0 | 0.00 | 0.00 | 0.00 | 40 | 1014.5 |
| 20260505193330 | 27 | 153 | 3.2 | 0.0 | 0.00 | 0.00 | 0.00 | 42 | 1014.4 |
| 20260505192836 | 27 | 242 | 3.2 | 0.0 | 0.00 | 0.00 | 0.00 | 41 | 1014.5 |
| 20260505192341 | 27 | 234 | 1.6 | 0.0 | 0.00 | 0.00 | 0.00 | 40 | 1014.6 |
| 20260505191825 | 27 | 173 | 1.6 | 0.0 | 0.00 | 0.00 | 0.00 | 40 | 1014.6 |
| 20260505191326 | 27 | 223 | 3.2 | 0.0 | 0.00 | 0.00 | 0.00 | 41 | 1014.8 |
| 20260505190832 | 27 | 248 | 3.2 | 0.0 | 0.00 | 0.00 | 0.00 | 41 | 1014.9 |
| 20260505190356 | 27 | 219 | 1.6 | 0.0 | 0.00 | 0.00 | 0.00 | 41 | 1014.9 |
| 20260505185840 | 27 | 112 | 1.6 | 0.0 | 0.00 | 0.00 | 0.00 | 41 | 1015.0 |
| 20260505185325 | 27 | 155 | 3.2 | 0.0 | 0.00 | 0.00 | 0.00 | 41 | 1015.1 |
| 20260505184829 | 27 | 240 | 3.2 | 0.0 | 0.00 | 0.00 | 0.00 | 41 | 1015.2 |
| 20260505184334 | 27 | 247 | 3.2 | 0.0 | 0.00 | 0.00 | 0.00 | 41 | 1015.3 |
| 20260505183836 | 27 | 165 | 3.2 | 0.0 | 0.00 | 0.00 | 0.00 | 40 | 1015.3 |
| 20260505183340 | 27 | 170 | 1.6 | 0.0 | 0.00 | 0.00 | 0.00 | 41 | 1015.3 |
| 20260505182825 | 27 | 182 | 1.6 | 0.0 | 0.00 | 0.00 | 0.00 | 41 | 1015.4 |
| 20260505182330 | 27 | 248 | 1.6 | 0.0 | 0.00 | 0.00 | 0.00 | 41 | 1015.2 |
| 20260505181835 | 27 | 182 | 1.6 | 0.0 | 0.00 | 0.00 | 0.00 | 40 | 1015.4 |
| 20260505181339 | 26 | 125 | 3.2 | 0.0 | 0.00 | 0.00 | 0.00 | 40 | 1015.2 |
| 20260505180845 | 26 | 164 | 3.2 | 0.0 | 0.00 | 0.00 | 0.00 | 41 | 1015.3 |
| 20260505180324 | 26 | 236 | 3.2 | 0.0 | 0.00 | 0.00 | 0.00 | 42 | 1015.3 |
| 20260505175829 | 27 | 261 | 3.2 | 0.0 | 0.00 | 0.00 | 0.00 | 40 | 1015.4 |
| 20260505175334 | 27 | 142 | 3.2 | 0.0 | 0.00 | 0.00 | 0.00 | 41 | 1015.3 |
| 20260505174839 | 26 | 158 | 3.2 | 0.0 | 0.00 | 0.00 | 0.00 | 42 | 1015.4 |
| 20260505174323 | 26 | 279 | 3.2 | 0.0 | 0.00 | 0.00 | 0.00 | 41 | 1015.4 |
| 20260505173829 | 26 | 227 | 3.2 | 0.0 | 0.00 | 0.00 | 0.00 | 41 | 1015.5 |
| 20260505173333 | 26 | 289 | 3.2 | 0.0 | 0.00 | 0.00 | 0.00 | 43 | 1015.5 |
| 20260505172834 | 25 | 271 | 1.6 | 0.0 | 0.00 | 0.00 | 0.00 | 41 | 1015.5 |
| 20260505172339 | 25 | 233 | 3.2 | 0.0 | 0.00 | 0.00 | 0.00 | 41 | 1015.7 |
| 20260505171823 | 26 | 246 | 3.2 | 0.0 | 0.00 | 0.00 | 0.00 | 40 | 1015.8 |
| 20260505171329 | 26 | 107 | 3.2 | 0.0 | 0.00 | 0.00 | 0.00 | 42 | 1015.9 |
| 20260505170834 | 25 | 326 | 3.2 | 0.0 | 0.00 | 0.00 | 0.00 | 45 | 1016.0 |
| 20260505170338 | 25 | 252 | 3.2 | 0.0 | 0.00 | 0.00 | 0.00 | 45 | 1016.0 |
| 20260505165843 | 25 | 260 | 3.2 | 0.0 | 0.00 | 0.00 | 0.00 | 45 | 1016.1 |
| 20260505165323 | 26 | 238 | 1.6 | 0.0 | 0.00 | 0.00 | 0.00 | 45 | 1016.1 |
| 20260505164828 | 26 | 187 | 1.6 | 0.0 | 0.00 | 0.00 | 0.00 | 43 | 1016.1 |
| 20260505164333 | 26 | 137 | 3.2 | 0.0 | 0.00 | 0.00 | 0.00 | 43 | 1016.1 |
| 20260505163838 | 25 | 246 | 3.2 | 0.0 | 0.00 | 0.00 | 0.00 | 48 | 1016.1 |
| 20260505163342 | 25 | 83 | 1.6 | 0.0 | 0.00 | 0.00 | 0.00 | 49 | 1016.3 |
| 20260505162823 | 25 | 242 | 1.6 | 0.0 | 0.00 | 0.00 | 0.00 | 49 | 1016.3 |
| 20260505162324 | 25 | 92 | 1.6 | 0.0 | 0.00 | 0.00 | 0.00 | 51 | 1016.3 |
| 20260505161829 | 25 | 115 | 1.6 | 0.0 | 0.00 | 0.00 | 0.00 | 51 | 1016.4 |
| 20260505161334 | 25 | 121 | 1.6 | 0.0 | 0.00 | 0.00 | 0.00 | 50 | 1016.4 |
| 20260505160839 | 25 | 260 | 1.6 | 0.0 | 0.00 | 0.00 | 0.00 | 51 | 1016.5 |
| 20260505160323 | 24 | 194 | 3.2 | 0.0 | 0.00 | 0.00 | 0.00 | 52 | 1016.6 |
| 20260505153324 | 23 | 210 | 1.6 | 0.0 | 0.00 | 0.00 | 0.00 | 55 | 1016.9 |
| 20260505152829 | 23 | 193 | 3.2 | 0.0 | 0.00 | 0.00 | 0.00 | 56 | 1016.8 |
| 20260505152355 | 23 | 294 | 1.6 | 0.0 | 0.00 | 0.00 | 0.00 | 57 | 1016.9 |
| 20260505151834 | 23 | 211 | 1.6 | 0.0 | 0.00 | 0.00 | 0.00 | 57 | 1017.0 |
| 20260505151339 | 23 | 123 | 1.6 | 0.0 | 0.00 | 0.00 | 0.00 | 59 | 1016.9 |
| 20260505150824 | 22 | 167 | 3.2 | 0.0 | 0.00 | 0.00 | 0.00 | 58 | 1016.8 |
| 20260505150326 | 22 | 246 | 1.6 | 0.0 | 0.00 | 0.00 | 0.00 | 58 | 1016.9 |
| 20260505140353 | 21 | 261 | 1.6 | 0.0 | 0.00 | 0.00 | 0.00 | 66 | 1016.9 |
| 20260505124829 | 16 | 259 | 1.6 | 0.0 | 0.00 | 0.00 | 0.00 | 79 | 1016.9 |
| 20260505124334 | 16 | 21 | 1.6 | 0.0 | 0.00 | 0.00 | 0.00 | 80 | 1016.9 |
| 20260505123840 | 15 | 246 | 0.0 | 0.0 | 0.00 | 0.00 | 0.00 | 81 | 1017.0 |
| 20260505123324 | 15 | 170 | 0.0 | 0.0 | 0.00 | 0.00 | 0.00 | 82 | 1016.9 |
| 20260505122829 | 15 | 170 | 0.0 | 0.0 | 0.00 | 0.00 | 0.00 | 82 | 1016.8 |
| 20260505122334 | 15 | 170 | 0.0 | 0.0 | 0.00 | 0.00 | 0.00 | 82 | 1016.8 |
| 20260505121839 | 15 | 205 | 0.0 | 0.0 | 0.00 | 0.00 | 0.00 | 82 | 1016.7 |
| 20260505121323 | 14 | 205 | 0.0 | 0.0 | 0.00 | 0.00 | 0.00 | 83 | 1016.7 |
| 20260505120825 | 14 | 205 | 0.0 | 0.0 | 0.00 | 0.00 | 0.00 | 85 | 1016.6 |
| 20260505120329 | 13 | 246 | 0.0 | 0.0 | 0.00 | 0.00 | 0.00 | 86 | 1016.7 |
| 20260505115834 | 13 | 246 | 0.0 | 0.0 | 0.00 | 0.00 | 0.00 | 88 | 1016.8 |
| 20260505115339 | 12 | 246 | 0.0 | 0.0 | 0.00 | 0.00 | 0.00 | 88 | 1016.9 |
| 20260505114824 | 12 | 246 | 0.0 | 0.0 | 0.00 | 0.00 | 0.00 | 89 | 1016.9 |
| 20260505114328 | 12 | 246 | 0.0 | 0.0 | 0.00 | 0.00 | 0.00 | 91 | 1016.7 |
| 20260505113834 | 12 | 246 | 0.0 | 0.0 | 0.00 | 0.00 | 0.00 | 92 | 1016.6 |
| 20260505113355 | 11 | 246 | 0.0 | 0.0 | 0.00 | 0.00 | 0.00 | 92 | 1016.7 |
| 20260505112839 | 11 | 246 | 0.0 | 0.0 | 0.00 | 0.00 | 0.00 | 92 | 1016.6 |
| 20260505112324 | 11 | 246 | 0.0 | 0.0 | 0.00 | 0.00 | 0.00 | 92 | 1016.6 |
| 20260505111829 | 11 | 246 | 0.0 | 0.0 | 0.00 | 0.00 | 0.00 | 92 | 1016.6 |
| 20260505111331 | 10 | 246 | 0.0 | 0.0 | 0.00 | 0.00 | 0.00 | 92 | 1016.5 |
| 20260505110836 | 10 | 246 | 0.0 | 0.0 | 0.00 | 0.00 | 0.00 | 92 | 1016.5 |
| 20260505110336 | 10 | 246 | 0.0 | 0.0 | 0.00 | 0.00 | 0.00 | 93 | 1016.5 |
| 20260505101836 | 10 | 246 | 0.0 | 0.0 | 0.00 | 0.00 | 0.00 | 92 | 1016.1 |
| 20260505101401 | 10 | 246 | 0.0 | 0.0 | 0.00 | 0.00 | 0.00 | 91 | 1015.9 |
| 20260505100845 | 10 | 246 | 0.0 | 0.0 | 0.00 | 0.00 | 0.00 | 91 | 1015.8 |
| 20260505100328 | 10 | 246 | 0.0 | 0.0 | 0.00 | 0.00 | 0.00 | 91 | 1015.8 |
| 20260505095833 | 10 | 246 | 0.0 | 0.0 | 0.00 | 0.00 | 0.00 | 90 | 1015.7 |
| 20260505095335 | 11 | 246 | 0.0 | 0.0 | 0.00 | 0.00 | 0.00 | 90 | 1015.7 |
| 20260505094839 | 11 | 246 | 0.0 | 0.0 | 0.00 | 0.00 | 0.00 | 91 | 1015.7 |
| 20260505094401 | 11 | 246 | 0.0 | 0.0 | 0.00 | 0.00 | 0.00 | 91 | 1015.7 |
| 20260505093825 | 11 | 246 | 0.0 | 0.0 | 0.00 | 0.00 | 0.00 | 90 | 1015.6 |
| 20260505093330 | 11 | 246 | 0.0 | 0.0 | 0.00 | 0.00 | 0.00 | 90 | 1015.6 |
| 20260505092828 | 11 | 246 | 0.0 | 0.0 | 0.00 | 0.00 | 0.00 | 90 | 1015.7 |
| 20260505092330 | 11 | 246 | 0.0 | 0.0 | 0.00 | 0.00 | 0.00 | 90 | 1015.7 |
| 20260505091834 | 11 | 246 | 0.0 | 0.0 | 0.00 | 0.00 | 0.00 | 89 | 1015.6 |
| 20260505091339 | 11 | 246 | 0.0 | 0.0 | 0.00 | 0.00 | 0.00 | 89 | 1015.6 |
| 20260505090824 | 11 | 246 | 0.0 | 0.0 | 0.00 | 0.00 | 0.00 | 89 | 1015.6 |
| 20260505090329 | 11 | 246 | 0.0 | 0.0 | 0.00 | 0.00 | 0.00 | 88 | 1015.5 |
| 20260505085833 | 11 | 246 | 0.0 | 0.0 | 0.00 | 0.00 | 0.00 | 88 | 1015.5 |
| 20260505085359 | 11 | 246 | 0.0 | 0.0 | 0.00 | 0.00 | 0.00 | 88 | 1015.5 |
| 20260505084838 | 11 | 246 | 0.0 | 0.0 | 0.00 | 0.00 | 0.00 | 87 | 1015.5 |
| 20260505084323 | 11 | 246 | 0.0 | 0.0 | 0.00 | 0.00 | 0.00 | 87 | 1015.5 |
| 20260505083828 | 11 | 246 | 0.0 | 0.0 | 0.00 | 0.00 | 0.00 | 87 | 1015.5 |
| 20260505083354 | 11 | 246 | 0.0 | 0.0 | 0.00 | 0.00 | 0.00 | 87 | 1015.5 |
| 20260505082838 | 12 | 246 | 0.0 | 0.0 | 0.00 | 0.00 | 0.00 | 86 | 1015.5 |
| 20260505082323 | 12 | 246 | 0.0 | 0.0 | 0.00 | 0.00 | 0.00 | 86 | 1015.4 |
| 20260505081827 | 12 | 246 | 0.0 | 0.0 | 0.00 | 0.00 | 0.00 | 86 | 1015.4 |
| 20260505081328 | 12 | 246 | 0.0 | 0.0 | 0.00 | 0.00 | 0.00 | 85 | 1015.3 |
| 20260505080833 | 12 | 246 | 0.0 | 0.0 | 0.00 | 0.00 | 0.00 | 85 | 1015.3 |
| 20260505080338 | 12 | 246 | 0.0 | 0.0 | 0.00 | 0.00 | 0.00 | 84 | 1015.3 |
| 20260505075843 | 12 | 246 | 0.0 | 0.0 | 0.00 | 0.00 | 0.00 | 84 | 1015.3 |
| 20260505075408 | 12 | 246 | 0.0 | 0.0 | 0.00 | 0.00 | 0.00 | 84 | 1015.3 |
| 20260505074909 | 12 | 246 | 0.0 | 0.0 | 0.00 | 0.00 | 0.00 | 84 | 1015.2 |
| 20260505074352 | 12 | 246 | 0.0 | 0.0 | 0.00 | 0.00 | 0.00 | 83 | 1015.2 |
| 20260505073838 | 12 | 246 | 0.0 | 0.0 | 0.00 | 0.00 | 0.00 | 82 | 1015.2 |
| 20260505073342 | 12 | 246 | 0.0 | 0.0 | 0.00 | 0.00 | 0.00 | 82 | 1015.1 |
| 20260505072908 | 13 | 246 | 0.0 | 0.0 | 0.00 | 0.00 | 0.00 | 82 | 1015.2 |
| 20260505072352 | 13 | 246 | 0.0 | 0.0 | 0.00 | 0.00 | 0.00 | 81 | 1015.1 |
| 20260505071835 | 13 | 246 | 0.0 | 0.0 | 0.00 | 0.00 | 0.00 | 81 | 1015.0 |
| 20260505071335 | 13 | 246 | 0.0 | 0.0 | 0.00 | 0.00 | 0.00 | 80 | 1015.0 |
| 20260505070840 | 13 | 246 | 0.0 | 0.0 | 0.00 | 0.00 | 0.00 | 80 | 1015.0 |
| 20260505070342 | 13 | 246 | 0.0 | 0.0 | 0.00 | 0.00 | 0.00 | 79 | 1015.0 |
| 20260505065847 | 13 | 246 | 0.0 | 0.0 | 0.00 | 0.00 | 0.00 | 79 | 1015.1 |
| 20260505065352 | 13 | 246 | 0.0 | 0.0 | 0.00 | 0.00 | 0.00 | 78 | 1015.1 |
| 20260505064837 | 14 | 246 | 0.0 | 0.0 | 0.00 | 0.00 | 0.00 | 76 | 1015.1 |
| 20260505064341 | 14 | 246 | 0.0 | 0.0 | 0.00 | 0.00 | 0.00 | 76 | 1015.0 |
| 20260505063842 | 14 | 246 | 0.0 | 0.0 | 0.00 | 0.00 | 0.00 | 76 | 1015.1 |
| 20260505063406 | 14 | 246 | 0.0 | 0.0 | 0.00 | 0.00 | 0.00 | 76 | 1015.1 |
| 20260505062850 | 14 | 246 | 0.0 | 0.0 | 0.00 | 0.00 | 0.00 | 76 | 1015.2 |
| 20260505062335 | 14 | 246 | 0.0 | 0.0 | 0.00 | 0.00 | 0.00 | 75 | 1015.1 |
| 20260505061840 | 15 | 246 | 0.0 | 0.0 | 0.00 | 0.00 | 0.00 | 75 | 1015.1 |
| 20260505061345 | 15 | 246 | 0.0 | 0.0 | 0.00 | 0.00 | 0.00 | 74 | 1015.1 |
| 20260505060906 | 15 | 246 | 0.0 | 0.0 | 0.00 | 0.00 | 0.00 | 74 | 1015.2 |
| 20260505060349 | 15 | 246 | 0.0 | 0.0 | 0.00 | 0.00 | 0.00 | 73 | 1015.2 |
| 20260505055853 | 15 | 246 | 0.0 | 0.0 | 0.00 | 0.00 | 0.00 | 72 | 1015.2 |
| 20260505055338 | 15 | 246 | 0.0 | 0.0 | 0.00 | 0.00 | 0.00 | 72 | 1015.3 |
| 20260505054843 | 15 | 246 | 0.0 | 0.0 | 0.00 | 0.00 | 0.00 | 72 | 1015.3 |
| 20260505054348 | 15 | 246 | 0.0 | 0.0 | 0.00 | 0.00 | 0.00 | 71 | 1015.3 |
| 20260505053853 | 15 | 246 | 0.0 | 0.0 | 0.00 | 0.00 | 0.00 | 70 | 1015.4 |
| 20260505053414 | 16 | 246 | 0.0 | 0.0 | 0.00 | 0.00 | 0.00 | 70 | 1015.5 |
| 20260505052838 | 16 | 246 | 0.0 | 0.0 | 0.00 | 0.00 | 0.00 | 69 | 1015.4 |
| 20260505052343 | 16 | 246 | 0.0 | 0.0 | 0.00 | 0.00 | 0.00 | 68 | 1015.5 |
| 20260505051847 | 16 | 246 | 0.0 | 0.0 | 0.00 | 0.00 | 0.00 | 68 | 1015.6 |
| 20260505051351 | 16 | 246 | 0.0 | 0.0 | 0.00 | 0.00 | 0.00 | 68 | 1015.6 |
| 20260505050836 | 16 | 246 | 0.0 | 0.0 | 0.00 | 0.00 | 0.00 | 67 | 1015.7 |
| 20260505050339 | 16 | 246 | 0.0 | 0.0 | 0.00 | 0.00 | 0.00 | 66 | 1015.7 |
| 20260505041336 | 17 | 203 | 0.0 | 0.0 | 0.00 | 0.00 | 0.00 | 65 | 1015.7 |
| 20260505040841 | 17 | 101 | 0.0 | 0.0 | 0.00 | 0.00 | 0.00 | 65 | 1015.6 |
| 20260505040345 | 17 | 101 | 0.0 | 0.0 | 0.00 | 0.00 | 0.00 | 65 | 1015.7 |
| 20260505035850 | 17 | 96 | 0.0 | 0.0 | 0.00 | 0.00 | 0.00 | 64 | 1015.6 |
| 20260505035415 | 17 | 96 | 0.0 | 0.0 | 0.00 | 0.00 | 0.00 | 64 | 1015.6 |
| 20260505034834 | 17 | 96 | 0.0 | 0.0 | 0.00 | 0.00 | 0.00 | 64 | 1015.6 |
| 20260505034339 | 18 | 96 | 0.0 | 0.0 | 0.00 | 0.00 | 0.00 | 63 | 1015.6 |
| 20260505033844 | 18 | 85 | 0.0 | 0.0 | 0.00 | 0.00 | 0.00 | 63 | 1015.6 |
| 20260505033410 | 18 | 85 | 0.0 | 0.0 | 0.00 | 0.00 | 0.00 | 63 | 1015.7 |
| 20260505032851 | 18 | 84 | 0.0 | 0.0 | 0.00 | 0.00 | 0.00 | 62 | 1015.7 |
| 20260505032336 | 18 | 123 | 0.0 | 0.0 | 0.00 | 0.00 | 0.00 | 61 | 1015.8 |
| 20260505031856 | 18 | 153 | 0.0 | 0.0 | 0.00 | 0.00 | 0.00 | 61 | 1015.7 |
| 20260505031340 | 18 | 153 | 0.0 | 0.0 | 0.00 | 0.00 | 0.00 | 61 | 1015.7 |
| 20260505030845 | 18 | 285 | 0.0 | 0.0 | 0.00 | 0.00 | 0.00 | 60 | 1015.6 |
| 20260505030349 | 18 | 285 | 0.0 | 0.0 | 0.00 | 0.00 | 0.00 | 60 | 1015.7 |
| 20260505025854 | 18 | 9 | 0.0 | 0.0 | 0.00 | 0.00 | 0.00 | 60 | 1015.7 |
| 20260505025339 | 19 | 283 | 0.0 | 0.0 | 0.00 | 0.00 | 0.00 | 59 | 1015.6 |
| 20260505024843 | 19 | 192 | 0.0 | 0.0 | 0.00 | 0.00 | 0.00 | 58 | 1015.5 |
| 20260505024345 | 19 | 277 | 1.6 | 0.0 | 0.00 | 0.00 | 0.00 | 58 | 1015.5 |
| 20260505023850 | 19 | 212 | 0.0 | 0.0 | 0.00 | 0.00 | 0.00 | 57 | 1015.4 |
| 20260505023415 | 19 | 336 | 0.0 | 0.0 | 0.00 | 0.00 | 0.00 | 57 | 1015.4 |
| 20260505022858 | 19 | 346 | 0.0 | 0.0 | 0.00 | 0.00 | 0.00 | 55 | 1015.4 |
| 20260505022342 | 19 | 293 | 0.0 | 0.0 | 0.00 | 0.00 | 0.00 | 55 | 1015.3 |
| 20260505021906 | 19 | 294 | 0.0 | 0.0 | 0.00 | 0.00 | 0.00 | 54 | 1015.3 |
| 20260505021346 | 19 | 312 | 0.0 | 0.0 | 0.00 | 0.00 | 0.00 | 52 | 1015.2 |
| 20260505020848 | 20 | 313 | 0.0 | 0.0 | 0.00 | 0.00 | 0.00 | 52 | 1015.1 |
| 20260505020412 | 20 | 314 | 0.0 | 0.0 | 0.00 | 0.00 | 0.00 | 51 | 1015.1 |
| 20260505015856 | 20 | 313 | 0.0 | 0.0 | 0.00 | 0.00 | 0.00 | 50 | 1015.2 |
| 20260505015339 | 20 | 313 | 0.0 | 0.0 | 0.00 | 0.00 | 0.00 | 49 | 1015.1 |
| 20260505014841 | 20 | 313 | 0.0 | 0.0 | 0.00 | 0.00 | 0.00 | 48 | 1015.0 |
| 20260505014341 | 20 | 250 | 0.0 | 0.0 | 0.00 | 0.00 | 0.00 | 48 | 1015.0 |
| 20260505013846 | 20 | 259 | 0.0 | 0.0 | 0.00 | 0.00 | 0.00 | 50 | 1014.9 |
| 20260505013350 | 20 | 259 | 0.0 | 0.0 | 0.00 | 0.00 | 0.00 | 48 | 1014.8 |
| 20260505012855 | 20 | 259 | 0.0 | 0.0 | 0.00 | 0.00 | 0.00 | 48 | 1014.7 |
| 20260505012340 | 20 | 259 | 0.0 | 0.0 | 0.00 | 0.00 | 0.00 | 48 | 1014.6 |
| 20260505011844 | 20 | 259 | 0.0 | 0.0 | 0.00 | 0.00 | 0.00 | 47 | 1014.4 |
| 20260505011405 | 20 | 259 | 0.0 | 0.0 | 0.00 | 0.00 | 0.00 | 47 | 1014.4 |
| 20260505010848 | 20 | 259 | 0.0 | 0.0 | 0.00 | 0.00 | 0.00 | 47 | 1014.3 |
| 20260505010353 | 20 | 259 | 0.0 | 0.0 | 0.00 | 0.00 | 0.00 | 47 | 1014.3 |
| 20260505005837 | 21 | 259 | 0.0 | 0.0 | 0.00 | 0.00 | 0.00 | 46 | 1014.2 |
| 20260505005342 | 21 | 259 | 0.0 | 0.0 | 0.00 | 0.00 | 0.00 | 46 | 1014.2 |
| 20260505004846 | 21 | 259 | 0.0 | 0.0 | 0.00 | 0.00 | 0.00 | 46 | 1014.1 |
| 20260505004351 | 21 | 259 | 0.0 | 0.0 | 0.00 | 0.00 | 0.00 | 45 | 1014.1 |
| 20260505003852 | 21 | 259 | 0.0 | 0.0 | 0.00 | 0.00 | 0.00 | 45 | 1014.1 |
| 20260505003336 | 21 | 259 | 0.0 | 0.0 | 0.00 | 0.00 | 0.00 | 44 | 1014.1 |
| 20260505002841 | 21 | 259 | 0.0 | 0.0 | 0.00 | 0.00 | 0.00 | 44 | 1014.0 |
| 20260505002346 | 22 | 259 | 0.0 | 0.0 | 0.00 | 0.00 | 0.00 | 43 | 1014.0 |
| 20260505001910 | 22 | 259 | 0.0 | 0.0 | 0.00 | 0.00 | 0.00 | 43 | 1013.9 |
| 20260505001334 | 22 | 294 | 0.0 | 0.0 | 0.00 | 0.00 | 0.00 | 42 | 1013.8 |
| 20260505000839 | 22 | 294 | 0.0 | 0.0 | 0.00 | 0.00 | 0.00 | 42 | 1013.9 |
| 20260505000340 | 22 | 249 | 0.0 | 0.0 | 0.00 | 0.00 | 0.00 | 41 | 1013.8 |
| 20260504235841 | 22 | 249 | 0.0 | 0.0 | 0.00 | 0.00 | 0.00 | 40 | 1013.8 |
| 20260504235407 | 23 | 249 | 0.0 | 0.0 | 0.00 | 0.00 | 0.00 | 40 | 1013.6 |
| 20260504234850 | 23 | 249 | 0.0 | 0.0 | 0.00 | 0.00 | 0.00 | 42 | 1013.6 |
| 20260504234335 | 23 | 161 | 0.0 | 0.0 | 0.00 | 0.00 | 0.00 | 39 | 1013.6 |
| 20260504233840 | 23 | 242 | 0.0 | 0.0 | 0.00 | 0.00 | 0.00 | 39 | 1013.6 |
| 20260504233341 | 23 | 238 | 0.0 | 0.0 | 0.00 | 0.00 | 0.00 | 38 | 1013.5 |
| 20260504232846 | 23 | 254 | 0.0 | 0.0 | 0.00 | 0.00 | 0.00 | 38 | 1013.4 |
| 20260504232411 | 23 | 154 | 0.0 | 0.0 | 0.00 | 0.00 | 0.00 | 38 | 1013.4 |
| 20260504231834 | 24 | 189 | 0.0 | 0.0 | 0.00 | 0.00 | 0.00 | 38 | 1013.4 |
| 20260504231339 | 24 | 250 | 1.6 | 0.0 | 0.00 | 0.00 | 0.00 | 39 | 1013.4 |
| 20260504230845 | 24 | 271 | 1.6 | 0.0 | 0.00 | 0.00 | 0.00 | 37 | 1013.4 |
| 20260504230349 | 24 | 140 | 1.6 | 0.0 | 0.00 | 0.00 | 0.00 | 36 | 1013.2 |
| 20260504225850 | 25 | 163 | 1.6 | 0.0 | 0.00 | 0.00 | 0.00 | 35 | 1013.2 |
| 20260504225415 | 25 | 161 | 1.6 | 0.0 | 0.00 | 0.00 | 0.00 | 34 | 1013.3 |
| 20260504224838 | 25 | 175 | 1.6 | 0.0 | 0.00 | 0.00 | 0.00 | 33 | 1013.2 |
| 20260504224343 | 25 | 167 | 1.6 | 0.0 | 0.00 | 0.00 | 0.00 | 33 | 1013.2 |
| 20260504223849 | 25 | 188 | 1.6 | 0.0 | 0.00 | 0.00 | 0.00 | 35 | 1013.3 |
| 20260504223353 | 25 | 244 | 1.6 | 0.0 | 0.00 | 0.00 | 0.00 | 36 | 1013.3 |
| 20260504222838 | 25 | 265 | 1.6 | 0.0 | 0.00 | 0.00 | 0.00 | 33 | 1013.2 |
| 20260504222339 | 25 | 157 | 1.6 | 0.0 | 0.00 | 0.00 | 0.00 | 34 | 1013.3 |
| 20260504221843 | 25 | 257 | 1.6 | 0.0 | 0.00 | 0.00 | 0.00 | 32 | 1013.2 |
| 20260504221349 | 25 | 250 | 1.6 | 0.0 | 0.00 | 0.00 | 0.00 | 31 | 1013.3 |
| 20260504220854 | 26 | 258 | 1.6 | 0.0 | 0.00 | 0.00 | 0.00 | 33 | 1013.3 |
| 20260504220338 | 26 | 240 | 1.6 | 0.0 | 0.00 | 0.00 | 0.00 | 32 | 1013.3 |
| 20260504215903 | 25 | 159 | 1.6 | 0.0 | 0.00 | 0.00 | 0.00 | 33 | 1013.3 |
| 20260504215343 | 26 | 163 | 1.6 | 0.0 | 0.00 | 0.00 | 0.00 | 32 | 1013.3 |
| 20260504214848 | 26 | 166 | 1.6 | 0.0 | 0.00 | 0.00 | 0.00 | 33 | 1013.3 |